Location: Unspecified
(48.2082°N, 0.0000°E)
Time: 17:23:01
(UTC+00:00)

Tiros 1 despin weight - Pass Details

Date: 25 June 2019
Orbit: 594 x 642 km, 48.2° (Epoch: 16 July)

Event Time Altitude Azimuth Distance (km) Brightness Sun altitude
Rises 00:32:48 0° 265° (W) 2,847 ? -18.1°
Reaches altitude 10° 00:35:06 10° 265° (W) 1,939 ? -18.0°
Maximum altitude 00:39:34 90° 331° (NNW) 601 ? -17.9°
Drops below altitude 10° 00:43:59 10° 87° (E) 1,927 ? -17.8°
Sets 00:46:16 0° 87° (E) 2,829 ? -17.7°
